Wind_Speed
42 43 43 43 44 44 44 44 44 43 43 43 43 44 44 44 44 45 45 45 45 45 44 44 43 41 38 34 30 26 24 23 22 22 22 22 22 22 21 20 19 18 17 16 14 12 11 9 8 8 9 11 13 15 18 20 22 24 26 28 30 32 35 37 39 41 43 45 47 48 49 50 51 52 52 51 49 48 47 47 46 46 46 46 45 44
42 42 43 43 43 43 43 43 43 42 42 42 42 43 43 43 43 43 44 43 43 42 41 40 38 35 30 24 20 17 17 18 19 21 21 21 21 20 19 18 17 17 17 17 17 17 17 16 17 17 18 19 21 22 24 26 28 29 30 31 33 35 36 38 40 42 44 46 47 48 49 50 50 50 49 48 48 48 48 47 46 45 45 44 44 43
42 42 43 43 43 43 43 42 42 41 41 41 41 41 41 42 42 42 42 42 41 39 38 37 33 28 21 15 12 12 14 17 19 21 22 23 23 22 21 20 20 21 22 23 23 24 24 25 25 25 26 27 28 29 30 31 32 33 34 35 36 37 39 40 42 43 45 46 47 48 49 49 49 48 47 46 46 46 45 44 43 43 42 41 40 39
42 42 42 42 42 42 42 41 41 40 40 40 40 40 40 40 41 41 41 40 38 37 35 32 27 21 14 9 7 9 11 15 18 21 23 25 26 26 26 26 26 27 28 29 30 31 32 33 33 33 34 34 35 35 36 36 37 37 38 38 39 40 41 42 43 44 45 45 46 46 47 47 46 45 44 43 43 42 41 41 40 39 39 38 37 36
42 42 42 42 42 41 41 40 40 39 39 39 39 39 39 39 39 40 39 38 36 34 32 28 22 15 9 6 4 5 8 11 15 19 22 25 27 29 30 31 32 33 34 36 37 38 39 40 41 41 41 41 42 42 42 42 42 42 42 42 42 43 44 44 45 45 45 45 44 44 44 43 43 42 41 40 39 39 38 38 38 37 36 35 35 34
42 42 41 41 41 40 40 39 39 38 38 38 38 38 38 38 38 38 37 36 34 31 29 24 18 12 9 6 3 2 4 7 11 15 19 23 26 29 32 34 35 37 38 39 41 42 43 45 46 46 47 47 47 47 46 46 46 45 45 45 45 45 45 45 45 45 44 43 43 42 41 40 40 39 39 38 37 37 36 36 36 36 35 35 34 34
41 41 41 41 40 40 39 38 38 37 37 37 37 37 37 37 37 37 36 34 31 29 26 21 16 12 10 8 6 3 1 2 6 10 14 18 23 27 30 33 35 37 38 39 41 42 44 45 46 47 48 48 48 48 47 47 47 46 46 46 45 45 45 44 44 43 43 42 42 40 39 39 38 38 37 37 36 36 36 35 35 35 35 35 35 35
41 41 40 40 40 39 38 37 37 36 36 36 36 36 36 36 36 35 34 32 29 27 23 19 15 13 12 10 8 6 4 2 2 5 9 13 18 23 27 30 33 35 37 38 39 40 41 43 44 45 45 46 46 46 46 45 45 45 45 45 45 44 43 43 42 42 42 42 41 40 39 38 37 37 36 36 36 35 35 35 34 34 34 35 35 35
41 41 40 39 39 38 37 37 36 36 36 35 35 35 34 34 34 34 32 30 28 25 21 18 15 14 14 13 11 9 6 4 2 2 5 9 13 18 24 28 31 33 35 37 38 39 39 40 41 42 43 43 43 43 44 44 44 44 44 45 45 45 44 42 42 41 41 41 40 39 38 37 36 35 34 34 33 33 32 33 33 33 34 35 35 35
41 40 40 39 38 37 37 36 35 35 35 35 34 34 33 33 33 32 31 28 26 22 19 16 15 15 16 15 13 11 8 6 4 3 4 8 12 16 21 26 29 32 34 35 37 38 38 38 39 39 40 40 40 41 41 42 42 43 43 44 45 45 44 43 42 41 40 39 38 36 35 33 32 31 30 29 29 29 29 30 31 32 33 33 34 33
40 40 39 38 38 37 36 35 35 34 34 34 33 33 32 32 31 31 29 26 24 20 18 16 16 17 17 16 14 12 10 8 5 4 5 9 13 17 21 24 27 30 32 34 35 36 37 37 37 37 37 37 38 38 39 40 40 41 42 43 44 44 43 42 40 39 37 35 33 31 29 27 26 25 25 25 26 27 27 28 29 30 30 31 31 30
40 39 39 38 37 36 35 35 34 34 34 33 33 32 31 31 30 29 27 25 22 18 16 15 16 17 18 17 15 14 11 9 7 6 8 11 14 18 21 24 26 28 30 32 33 34 35 36 36 35 35 35 36 37 37 38 38 39 40 40 41 41 40 38 36 34 31 29 26 24 23 22 22 22 23 24 25 26 26 27 27 27 28 27 28 28
40 39 38 37 36 35 34 34 34 33 33 33 32 31 31 30 29 28 26 23 20 17 15 15 17 18 18 17 16 14 13 10 9 8 10 13 16 18 21 23 25 27 28 30 31 31 33 33 33 33 33 34 34 35 35 35 35 35 34 34 34 34 33 32 30 28 25 23 22 21 21 21 22 23 24 25 26 26 26 26 25 25 25 25 25 26
39 39 38 37 36 35 34 33 33 33 32 32 31 31 30 29 28 27 25 22 19 15 14 15 17 19 18 18 17 15 14 12 11 11 12 14 16 18 20 22 23 25 27 28 29 29 30 31 31 31 31 32 32 33 33 33 31 29 28 27 26 26 26 25 24 23 23 22 22 23 23 24 25 25 25 26 26 26 25 25 24 24 24 24 25 25
39 38 37 37 36 35 34 33 33 32 32 31 31 30 29 28 27 26 24 21 18 14 13 15 18 19 19 18 18 17 15 14 13 13 14 16 17 18 20 21 22 23 25 26 27 28 29 30 30 30 30 30 31 31 32 31 29 27 26 24 24 24 24 24 24 25 25 25 25 26 26 27 27 27 27 26 26 25 24 24 23 23 24 24 25 25
39 38 37 36 35 34 34 33 33 32 31 31 30 29 28 27 26 25 23 20 17 13 12 15 19 20 20 19 19 18 17 16 15 15 16 17 18 19 20 20 21 22 24 25 26 27 28 29 29 30 30 30 30 30 30 30 29 27 26 26 26 26 27 27 28 28 27 27 27 27 28 28 28 28 27 26 25 25 24 23 23 23 24 24 25 25
39 38 37 36 35 34 33 33 32 32 31 30 29 29 28 27 26 24 22 20 17 13 12 15 19 21 21 20 20 20 19 18 17 17 17 18 19 19 20 20 20 21 23 24 25 27 27 29 29 30 30 30 30 30 29 29 28 27 27 27 27 28 29 29 30 30 29 29 28 28 28 28 28 28 27 26 25 25 24 23 23 23 23 23 24 24
38 38 37 36 35 34 33 33 32 31 31 30 29 28 27 26 25 23 22 19 17 13 12 15 19 22 22 22 21 21 21 20 19 19 19 19 19 19 20 20 20 21 22 24 25 26 28 29 30 30 31 31 31 31 30 29 28 28 28 28 28 29 30 31 31 30 29 28 28 27 28 28 28 27 27 26 25 25 25 24 23 23 23 23 23 24
38 37 36 36 35 34 33 33 32 31 31 30 29 28 27 26 24 23 21 19 17 14 12 14 19 22 23 23 23 23 23 22 21 21 21 20 20 20 20 19 19 20 22 23 24 26 27 28 30 30 31 31 32 31 31 31 30 30 29 29 29 30 31 31 31 30 29 28 26 26 26 26 27 27 26 26 25 25 25 24 24 24 24 25 25 26
38 37 36 35 35 34 33 33 32 31 31 30 29 27 26 25 24 23 21 19 17 15 13 14 18 22 24 24 24 25 25 24 24 23 22 22 21 21 20 20 20 20 21 22 24 25 26 28 29 30 31 31 31 31 31 32 31 31 31 31 30 30 31 31 31 30 29 27 26 25 25 25 26 26 26 26 26 25 25 25 26 26 27 28 29 30
38 37 36 35 35 34 34 33 32 32 31 30 29 27 26 25 24 22 21 19 18 16 14 14 17 21 24 26 26 26 26 26 26 25 24 23 23 22 22 21 21 21 22 22 23 25 26 27 28 29 30 31 31 31 31 31 31 32 32 32 31 31 31 31 31 30 30 29 28 27 27 27 27 28 28 28 27 27 27 28 29 29 30 31 32 33
38 37 36 36 35 34 34 33 32 32 31 30 29 28 26 25 24 22 20 19 18 16 15 14 16 20 24 27 28 28 28 28 28 28 27 26 25 23 23 23 23 23 24 24 24 25 26 27 28 29 30 31 31 31 31 31 31 31 32 32 32 32 32 32 32 32 31 31 31 31 31 31 31 31 31 30 30 30 30 31 32 33 34 35 36 37
38 37 36 36 35 35 34 33 33 32 31 30 29 28 27 25 24 22 20 19 18 17 16 16 16 20 24 27 29 30 31 31 30 30 29 28 27 25 25 24 24 25 26 26 26 26 26 27 29 30 31 31 32 32 32 31 31 31 31 32 32 32 33 33 33 33 34 34 34 34 35 35 35 34 34 33 33 33 33 34 35 36 37 39 40 40
38 37 37 36 35 35 34 34 33 32 31 30 30 28 27 26 24 22 21 19 18 17 17 17 17 19 22 26 30 32 33 33 33 32 32 31 30 28 27 26 26 26 27 29 29 28 28 28 29 30 31 33 33 33 33 33 32 32 31 31 32 32 33 33 34 34 35 35 35 36 36 37 36 36 35 35 34 34 35 36 37 39 40 42 43 43
38 37 37 36 36 35 34 34 33 32 32 31 30 29 28 26 25 23 21 20 18 17 17 18 18 19 21 25 29 32 34 35 35 35 34 34 33 31 30 29 28 27 28 30 31 31 30 30 30 31 32 33 34 35 35 35 34 33 32 31 31 31 32 32 33 33 34 34 35 35 35 35 35 35 35 35 35 35 36 38 39 41 43 44 45 45
38 38 37 37 36 35 35 34 34 33 32 31 30 30 28 27 25 24 22 20 19 18 18 18 19 20 21 24 28 32 35 37 37 37 37 36 35 34 33 32 31 29 29 31 33 34 33 33 32 32 32 34 35 36 37 37 36 35 34 33 32 32 32 32 32 32 33 33 33 34 34 34 34 35 35 36 36 38 39 41 42 44 45 46 46 46
39 38 38 37 37 36 35 35 34 33 33 32 31 30 29 28 26 25 23 21 19 18 18 18 19 20 22 23 26 31 35 38 39 40 39 39 38 37 36 35 33 32 31 31 33 35 36 36 35 34 34 35 36 37 37 38 38 37 37 36 35 34 34 34 34 34 34 34 35 35 35 36 36 37 38 39 40 41 43 44 45 46 47 47 47 47
39 39 38 38 37 36 36 35 34 34 33 32 32 31 30 29 27 26 24 22 20 19 18 19 20 21 22 24 26 29 34 38 40 42 42 41 41 40 39 38 36 35 34 33 34 36 37 38 38 38 37 37 37 38 38 39 39 40 39 39 39 38 38 38 38 38 38 38 38 39 39 40 41 41 42 43 44 45 46 47 48 48 48 48 48 48
40 39 39 38 38 37 36 36 35 34 34 33 32 31 31 30 28 27 25 24 22 20 19 19 20 21 23 24 26 28 32 37 40 43 44 44 44 43 42 40 39 38 37 36 35 36 37 39 40 40 40 40 40 40 40 41 41 41 42 42 42 42 42 43 43 43 43 43 44 44 44 45 46 46 47 48 48 49 49 49 49 49 49 49 49 50
40 40 39 39 38 37 37 36 35 35 34 34 33 32 31 30 29 28 27 25 23 22 21 20 20 21 23 25 26 28 31 35 39 43 45 46 47 46 45 43 42 41 40 39 38 37 37 39 40 41 42 42 42 42 42 42 43 43 43 44 44 45 46 46 47 47 48 48 48 49 49 49 50 50 51 51 51 51 51 51 50 50 49 49 50 51
41 40 40 39 39 38 37 37 36 35 35 34 34 33 32 31 30 29 28 26 25 23 22 21 21 21 22 25 27 28 30 33 37 41 45 48 49 49 48 47 45 44 43 42 41 40 40 39 40 42 43 44 44 44 45 45 45 45 45 46 46 47 48 49 50 51 51 52 52 52 53 53 53 53 53 53 53 52 51 51 50 50 50 50 51 52
41 41 40 40 39 38 38 37 36 36 35 35 34 34 33 32 31 30 29 28 26 25 23 22 22 22 23 24 27 29 31 33 36 40 44 47 50 51 51 50 49 47 46 45 44 43 43 42 42 43 44 44 45 46 46 47 47 47 47 48 48 49 50 51 52 53 53 54 54 55 55 55 55 55 54 54 53 52 52 51 51 51 51 52 53 53
42 41 41 41 40 39 38 38 37 37 36 36 35 35 34 33 33 31 30 29 28 26 25 24 23 23 23 24 26 28 31 33 35 38 42 46 50 52 54 54 53 51 49 48 48 47 46 45 45 44 45 46 46 47 48 48 49 50 50 50 50 51 51 52 52 53 54 55 55 56 56 56 55 55 55 54 54 53 53 53 52 53 53 53 54 55
42 42 42 41 40 40 39 38 38 37 37 36 36 35 35 34 34 33 32 30 29 28 27 26 25 24 24 24 26 28 30 32 35 37 40 44 48 52 54 56 56 55 53 52 51 50 49 48 48 47 47 47 48 48 49 50 51 51 52 52 52 53 53 53 53 54 55 55 56 56 56 56 56 56 55 55 55 55 54 54 54 54 55 55 56 56
43 43 42 42 41 40 40 39 38 38 37 37 37 36 36 35 34 34 33 32 31 30 28 27 26 25 25 25 26 27 29 32 34 37 39 42 46 50 53 56 58 58 57 56 55 53 52 52 51 50 50 49 50 50 50 51 52 52 53 54 54 55 55 55 55 55 56 56 57 57 57 57 57 57 57 57 56 56 56 56 56 56 56 56 56 57
44 43 43 42 42 41 40 40 39 38 38 38 37 37 37 36 35 35 34 33 32 31 30 29 28 27 26 26 26 27 29 31 33 36 39 41 44 48 51 55 58 59 60 59 58 57 56 55 54 53 53 52 52 52 52 53 53 53 54 55 56 56 56 57 57 57 57 58 58 59 59 59 59 59 59 59 58 58 58 57 57 57 57 57 57 57
44 44 43 43 42 41 41 40 40 39 39 38 38 38 37 37 36 36 35 34 34 33 32 31 30 29 28 27 27 27 28 30 32 35 38 41 43 46 49 53 57 59 61 62 61 61 60 59 58 57 56 55 55 54 54 54 54 55 55 56 56 57 58 58 58 59 59 59 60 60 60 61 61 61 61 60 60 60 59 59 58 58 58 58 58 58
45 44 44 43 43 42 41 41 40 40 39 39 39 39 38 38 37 37 36 36 35 34 33 32 31 30 30 29 28 28 28 29 31 34 37 40 42 45 48 51 54 58 61 63 63 63 63 62 61 61 60 59 59 58 57 57 56 56 57 57 58 58 59 59 60 60 60 61 61 61 62 62 62 62 62 62 62 61 61 61 60 60 59 59 59 59
45 45 44 44 43 43 42 41 41 40 40 40 39 39 39 39 38 38 37 37 36 36 35 34 33 32 31 31 30 30 29 30 31 32 35 38 41 44 47 50 53 56 59 62 64 65 65 65 64 64 63 63 62 61 60 60 59 59 59 59 59 59 60 60 61 61 62 62 62 63 63 63 63 63 63 63 63 63 63 62 62 62 61 61 61 61
45 45 45 44 44 43 42 42 41 41 41 40 40 40 40 40 39 39 39 38 38 37 36 35 34 34 33 32 32 31 31 30 31 32 34 36 39 42 45 48 51 54 57 60 63 65 66 67 67 67 66 66 65 64 64 63 63 62 61 61 61 61 61 62 62 63 63 64 64 64 65 65 65 65 65 65 65 65 64 64 64 64 63 63 63 63
46 45 45 44 44 44 43 43 42 42 41 41 41 41 41 40 40 40 40 39 39 38 38 37 36 35 34 34 33 33 32 32 31 32 33 35 37 41 44 47 50 53 55 58 61 64 67 68 69 69 69 68 68 67 67 66 66 65 64 64 63 63 63 63 63 63 64 65 65 66 66 67 67 67 67 67 67 66 66 66 66 66 66 65 65 65
46 46 45 45 44 44 44 43 43 42 42 42 42 42 41 41 41 41 41 40 40 40 39 38 37 37 36 35 35 34 34 33 33 32 33 34 36 38 42 45 48 51 54 57 60 62 65 68 69 71 71 71 70 70 69 69 69 68 67 67 67 66 66 65 65 65 65 65 66 66 67 68 68 68 69 69 69 69 69 68 68 68 68 68 68 68
47 46 46 45 45 44 44 44 43 43 43 43 43 42 42 42 42 42 42 42 41 41 40 39 39 38 37 37 36 36 35 34 34 33 33 34 35 37 40 43 46 49 52 55 58 61 63 66 68 70 72 73 73 72 72 71 71 71 70 70 70 69 68 68 68 67 67 67 67 67 67 68 68 69 70 70 70 71 71 71 70 70 71 70 70 70
47 47 46 46 45 45 45 44 44 44 44 43 43 43 43 43 43 43 43 43 42 42 41 41 40 39 39 38 37 37 36 36 35 35 34 34 35 36 38 41 44 47 50 53 56 59 62 64 67 69 71 73 74 75 75 74 74 73 73 72 72 71 71 71 71 70 70 69 69 69 69 69 69 69 70 70 71 71 72 72 72 73 73 73 73 73
48 47 47 46 46 45 45 45 45 44 44 44 44 44 44 44 44 44 44 44 44 43 43 42 41 40 40 39 39 38 38 37 36 36 35 35 35 36 37 39 42 45 48 51 54 57 60 62 65 67 70 72 73 75 76 76 76 76 76 75 74 74 74 74 73 73 73 72 72 72 72 71 71 71 71 71 71 72 73 73 73 74 74 75 75 75
48 48 47 47 46 46 46 45 45 45 45 45 45 45 45 45 45 45 45 45 45 44 44 43 42 41 41 40 40 39 39 38 38 37 36 36 36 36 37 38 40 42 45 49 52 55 58 60 63 65 68 70 72 74 76 77 78 78 78 78 77 76 76 76 75 75 75 75 75 74 74 74 74 73 73 74 74 74 74 75 75 75 76 76 77 77
48 48 47 47 47 46 46 46 46 46 45 45 45 45 46 46 46 46 46 46 46 45 44 44 43 42 42 41 41 40 40 39 39 38 37 37 37 37 37 38 39 41 43 46 49 52 55 58 61 63 65 67 70 72 74 76 77 78 79 79 79 79 79 78 78 77 77 76 76 76 76 76 76 76 76 76 76 76 77 77 77 77 77 78 78 78
49 48 48 47 47 47 46 46 46 46 46 46 46 46 46 47 47 47 47 47 47 46 45 44 44 43 42 42 42 41 41 41 40 39 38 37 37 37 37 38 38 40 41 44 47 50 53 55 58 61 63 65 68 70 72 74 76 77 79 80 81 81 81 81 80 80 79 78 78 78 77 77 77 77 77 77 77 78 78 78 79 79 79 79 79 80
49 49 48 48 47 47 47 47 47 47 47 47 47 47 47 48 48 48 48 48 47 47 46 45 44 44 43 43 43 42 42 41 41 40 39 38 38 37 37 38 38 39 40 42 44 47 50 52 55 58 60 63 65 67 70 72 74 75 77 79 80 81 82 82 82 82 81 81 80 80 79 79 79 79 78 78 78 78 78 79 79 79 80 80 80 80
49 49 48 48 48 47 47 47 47 48 48 48 48 48 49 49 49 49 49 49 48 47 46 46 45 44 44 44 43 43 43 42 41 40 39 39 38 38 38 38 38 39 39 41 42 44 47 49 52 55 58 60 62 64 66 69 71 73 74 76 78 79 80 82 82 83 83 83 83 82 82 82 81 81 81 80 80 80 80 80 80 80 80 80 81 81
49 49 48 48 48 48 48 48 48 48 49 49 49 49 50 50 50 50 50 49 48 47 47 46 45 45 44 44 44 44 43 43 42 41 40 39 39 38 38 38 38 38 39 40 41 42 44 46 49 51 54 56 59 61 63 66 68 70 71 73 75 77 78 79 81 82 83 83 84 84 84 84 84 84 84 83 83 83 83 83 83 82 82 82 82 82
Wind_Direction
272 274 275 276 277 278 279 281 283 285 287 289 291 294 297 300 303 307 310 313 316 318 319 319 320 321 322 323 325 329 334 339 343 346 346 345 343 343 346 352 358 4 9 15 21 28 38 52 70 90 106 118 127 132 136 139 142 145 150 154 157 160 162 165 167 169 170 172 174 174 174 175 176 178 180 181 183 186 191 196 200 204 208 211 213 216
272 273 274 276 277 278 279 281 283 285 287 289 292 294 297 301 304 308 311 315 317 319 320 320 321 322 323 326 332 342 354 2 7 8 8 6 5 6 10 16 24 32 39 45 51 59 67 76 84 93 100 107 113 118 122 126 129 133 138 142 147 151 154 157 160 163 165 167 169 169 169 170 172 175 177 179 181 185 190 195 199 204 208 212 214 217
272 273 274 275 276 277 279 281 283 285 287 289 292 295 298 301 305 309 312 316 318 320 320 321 321 321 323 328 343 2 15 21 25 26 26 26 27 29 34 41 48 55 60 65 69 74 78 83 87 92 97 102 106 111 115 119 123 127 131 136 140 144 148 151 154 157 160 161 162 163 165 167 170 173 175 178 182 186 190 195 200 205 209 213 216 219
271 272 273 274 275 277 278 280 282 284 287 289 292 295 298 302 306 310 313 317 319 320 320 320 319 318 318 326 351 14 26 33 37 40 41 42 45 48 53 58 63 68 73 76 78 81 83 86 89 92 95 99 103 106 110 114 118 122 126 130 134 138 141 145 147 150 152 154 156 158 162 165 168 171 175 178 182 187 191 196 201 206 211 215 218 221
271 272 273 274 275 276 278 280 282 284 286 289 292 295 299 302 306 310 314 318 320 321 320 319 315 309 300 304 338 15 32 42 48 51 53 55 58 61 65 68 72 75 78 81 83 85 87 88 90 92 95 97 100 103 106 110 113 117 120 124 128 132 135 138 141 143 146 149 152 156 160 164 167 171 175 179 183 188 193 198 203 207 212 216 219 222
270 271 272 273 274 276 278 280 282 284 286 289 292 295 299 303 307 311 315 319 320 321 319 315 308 293 276 269 282 340 33 51 58 63 65 68 70 72 74 76 77 79 82 84 86 88 90 91 93 94 96 97 99 102 104 107 110 114 117 121 125 129 132 136 139 142 145 148 152 156 159 163 167 171 175 180 184 189 194 199 204 208 212 216 219 222
270 270 271 272 274 276 277 279 281 283 286 289 292 295 299 303 308 312 316 319 321 320 317 310 297 277 259 250 248 252 273 63 70 73 77 79 82 83 84 84 85 85 87 88 90 92 94 95 97 98 100 101 102 104 106 109 112 115 119 122 126 130 133 137 140 143 147 150 153 156 159 163 167 172 176 180 185 189 194 199 203 207 211 215 218 221
269 270 271 272 273 275 277 278 281 283 285 288 292 295 299 304 308 312 316 319 320 319 314 304 286 264 249 243 240 240 238 220 101 88 89 92 94 96 96 96 95 95 95 96 96 98 99 101 103 104 106 107 109 110 113 115 118 120 123 126 128 131 134 138 141 145 148 151 154 157 161 165 169 173 177 182 186 190 195 199 204 208 212 216 219 221
268 269 270 271 273 274 276 278 280 282 285 288 291 295 299 304 308 312 316 319 319 317 310 297 277 256 245 240 238 237 236 232 205 127 108 106 107 108 108 107 106 105 105 105 105 105 106 107 109 110 112 114 115 118 120 122 125 127 129 130 131 133 135 137 141 145 148 151 155 158 161 165 170 174 179 183 188 193 198 203 207 211 215 218 220 222
267 268 269 270 272 273 275 276 279 281 284 287 290 295 299 304 308 312 315 318 318 314 306 290 269 250 242 239 237 235 234 231 220 177 132 121 119 118 118 117 116 115 114 114 114 113 113 113 114 115 117 119 121 124 126 128 130 132 133 133 133 134 135 137 140 144 147 150 153 157 161 165 170 176 182 188 194 200 205 210 213 216 218 220 221 223
266 267 268 269 271 272 273 275 277 280 283 286 290 294 298 303 307 311 315 317 317 312 300 283 262 247 240 237 235 233 230 226 214 181 144 131 127 125 124 123 122 121 120 120 120 120 119 119 119 120 121 123 126 127 129 131 132 134 134 134 134 134 135 137 139 142 145 148 152 156 162 168 174 182 189 196 202 207 210 213 215 217 219 221 224 226
265 266 267 268 269 271 272 274 276 279 282 285 289 293 298 302 306 310 313 316 315 309 294 275 257 244 238 235 233 230 226 219 204 175 149 137 132 130 128 127 126 125 125 124 124 124 124 124 124 124 125 127 128 129 129 130 130 131 132 133 134 134 135 136 139 141 144 148 153 160 168 176 184 191 197 202 205 207 209 211 213 216 219 223 226 229
263 264 266 267 268 269 270 272 274 277 280 284 288 292 297 301 305 309 312 314 313 305 287 266 250 241 236 233 230 226 220 212 196 174 154 143 138 135 133 132 131 130 129 128 128 128 129 128 128 128 128 129 129 129 128 127 126 127 128 130 131 133 134 136 140 144 148 155 163 172 179 184 188 192 196 199 202 204 206 208 211 215 219 223 226 229
262 263 264 265 266 268 269 270 273 276 279 283 287 291 296 300 304 307 310 312 311 302 281 259 244 236 233 230 226 221 215 205 192 175 160 151 145 141 139 137 136 136 134 133 133 133 133 132 132 131 131 131 130 129 128 126 125 126 127 130 132 136 139 144 150 156 163 170 177 181 184 184 186 187 190 194 196 199 201 204 208 213 217 220 223 225
261 262 263 264 265 266 267 269 271 274 278 282 286 290 295 299 303 306 308 310 308 298 275 251 238 232 229 225 222 217 210 201 190 176 165 158 152 148 145 143 142 142 140 139 138 137 137 137 136 136 136 135 134 133 131 130 131 134 137 142 146 150 155 160 166 171 176 180 183 185 186 187 187 188 190 192 194 196 198 201 205 209 212 215 217 219
260 261 262 263 264 265 266 268 270 273 277 281 285 289 293 297 301 304 306 307 305 295 269 243 232 228 225 222 218 213 206 198 189 179 169 161 156 152 149 148 148 148 147 146 144 143 142 142 142 142 142 141 139 137 136 136 139 143 149 155 160 165 168 172 176 179 182 184 186 188 190 192 194 195 197 199 200 200 201 203 205 207 210 212 214 215
259 260 260 261 262 263 264 266 269 272 275 279 283 287 292 296 300 302 304 304 302 292 266 238 227 223 222 219 215 211 205 197 189 181 171 163 157 154 152 151 152 153 153 152 151 150 149 148 148 148 148 147 145 143 142 143 147 152 158 164 169 173 177 179 181 183 184 186 187 190 192 195 198 201 203 206 208 209 209 209 209 210 211 214 216 218
257 258 259 260 261 262 263 265 268 271 274 278 282 286 290 294 297 300 302 301 299 289 265 237 225 221 219 216 212 209 204 197 190 182 174 165 160 157 155 155 156 157 158 158 157 156 155 154 154 154 154 154 152 151 151 153 156 161 166 172 176 180 183 185 186 187 188 188 189 191 193 196 199 202 205 208 211 212 213 213 213 214 216 218 222 225
256 257 258 259 259 260 262 264 266 270 273 276 280 284 288 292 295 298 299 298 296 288 267 238 223 219 217 215 212 209 205 199 192 184 176 169 164 161 159 160 161 162 162 162 161 161 160 160 160 160 160 160 160 159 160 161 164 168 172 177 181 184 187 189 190 191 192 192 193 194 197 200 202 205 208 210 212 214 215 216 217 218 219 221 224 227
255 256 256 257 258 259 261 263 265 268 272 275 279 282 286 290 293 295 296 295 293 286 270 242 225 218 216 214 212 209 205 200 194 187 180 173 168 166 165 166 169 170 169 167 166 166 165 165 165 166 166 167 167 167 168 170 172 175 178 182 185 188 191 193 195 196 197 197 198 200 203 206 209 211 213 215 216 217 218 220 222 222 223 224 225 227
253 254 255 256 257 258 259 262 264 267 270 274 277 280 284 287 290 293 293 293 290 284 272 249 228 219 216 215 212 209 206 202 196 190 184 177 173 171 171 173 175 177 177 175 173 172 171 171 171 171 172 172 173 174 176 177 179 181 184 187 190 193 195 198 200 201 202 202 203 205 209 212 215 217 218 219 220 222 224 225 226 227 227 227 227 228
252 253 254 254 255 257 258 261 264 266 269 272 275 279 282 285 288 290 291 289 287 282 273 255 235 222 217 215 213 211 208 204 200 194 188 181 176 175 176 178 181 183 183 182 180 179 178 178 178 177 177 177 178 179 181 183 185 187 190 192 195 198 200 202 205 206 208 208 209 210 212 215 218 219 221 222 224 225 226 228 229 230 230 230 230 229
251 252 252 253 254 255 257 260 262 265 268 271 274 277 280 283 285 287 287 286 284 279 272 260 242 227 219 216 214 212 210 207 204 199 192 186 180 178 180 183 186 188 189 187 185 184 184 185 184 184 183 182 182 183 184 186 189 192 195 198 200 203 205 207 209 211 213 214 214 215 216 218 220 221 222 224 225 226 228 229 231 232 233 233 232 231
250 250 251 252 253 255 257 259 261 264 267 270 273 276 279 281 283 284 285 284 281 276 271 262 249 234 223 218 215 213 211 209 207 203 197 191 186 183 184 186 190 194 195 192 190 188 188 189 190 190 189 188 187 187 187 188 191 194 197 201 204 206 209 211 213 215 216 218 218 219 220 221 222 223 224 225 226 227 229 230 232 234 235 234 234 233
249 249 250 251 252 253 256 258 260 263 266 269 271 274 277 279 281 282 283 281 278 274 269 263 253 240 228 221 217 214 213 211 209 206 202 196 191 188 187 189 191 196 200 199 196 193 192 193 194 195 195 195 193 192 190 190 192 194 197 201 204 208 210 212 214 216 218 219 220 221 222 223 223 224 225 225 226 228 230 232 235 236 237 237 236 234
247 248 249 250 251 253 255 257 259 262 265 267 270 273 275 278 279 280 281 279 277 272 267 262 255 246 235 226 220 216 214 213 212 210 207 201 196 192 191 191 192 195 201 203 203 200 198 197 197 198 199 200 199 197 196 194 194 195 197 200 204 207 210 212 214 216 218 219 220 221 221 222 223 224 225 226 227 230 232 235 238 240 241 240 238 237
246 247 248 249 250 252 254 256 258 261 263 266 269 272 274 276 278 279 279 278 275 271 265 261 255 249 241 232 224 219 216 214 214 213 211 207 201 197 194 194 194 195 198 203 206 206 205 203 202 201 202 203 203 202 201 199 197 197 198 200 204 207 209 212 214 215 217 218 219 220 221 222 223 224 226 227 229 232 235 238 241 243 244 243 241 240
245 246 247 248 249 251 253 255 257 260 262 265 268 270 273 275 276 277 277 277 275 271 265 260 255 250 245 238 230 223 218 216 215 215 214 212 207 202 199 197 197 197 198 202 206 209 210 209 208 207 206 206 206 206 205 204 202 201 200 202 204 207 210 212 214 215 217 218 219 220 222 223 224 226 228 230 232 235 237 241 243 245 245 244 243 242
245 245 246 247 249 250 252 254 256 259 261 264 267 269 272 273 275 276 276 276 274 271 265 260 255 251 246 242 235 228 222 218 217 216 216 215 212 208 204 201 200 200 200 201 204 208 211 213 213 213 212 211 210 210 210 209 207 206 204 205 206 208 211 213 215 217 218 220 221 222 223 225 227 228 230 232 235 237 239 242 244 245 245 244 244 243
244 245 246 247 248 249 251 253 256 258 260 263 266 268 270 272 274 275 275 275 274 271 267 261 256 251 247 244 239 233 227 222 219 218 217 217 216 214 210 206 204 203 202 202 204 206 210 213 215 216 217 216 216 215 214 214 213 212 210 209 209 210 212 214 216 218 220 221 223 224 226 227 229 230 232 234 236 238 240 242 244 244 244 243 243 244
243 244 245 246 247 249 251 253 255 257 260 262 265 267 270 271 273 274 274 274 273 271 268 263 257 252 248 245 242 238 233 227 222 220 219 218 218 218 215 211 208 207 206 205 205 206 209 211 214 217 219 220 221 221 220 219 218 218 217 215 214 214 214 215 217 218 220 222 223 225 227 228 230 232 233 235 237 238 240 242 243 243 243 243 243 244
243 244 245 246 247 249 250 252 255 257 259 262 264 267 269 270 272 273 273 273 273 271 269 265 259 254 250 246 243 240 237 232 227 223 221 220 220 220 219 217 214 211 210 209 208 208 209 210 213 216 218 221 223 224 225 224 224 223 222 222 221 220 219 219 219 220 221 222 223 225 227 228 230 232 233 235 237 238 240 241 242 242 242 243 243 244
243 243 244 246 247 248 250 252 254 257 259 261 264 266 268 269 271 272 272 272 272 271 269 266 262 257 252 248 245 242 239 236 232 228 224 223 222 222 221 220 219 216 214 213 212 211 211 211 213 215 217 220 222 224 226 228 228 228 227 227 226 226 225 224 224 224 224 224 225 226 227 229 230 232 234 235 237 239 240 241 242 243 243 244 244 245
242 243 244 245 247 248 250 252 254 256 259 261 263 265 267 269 270 271 271 272 272 271 270 267 264 259 254 250 246 244 241 239 236 232 229 226 224 223 223 223 222 221 219 217 216 215 214 214 214 216 218 220 221 223 225 228 230 231 231 231 230 230 229 229 229 229 229 229 229 229 230 231 232 233 234 236 238 240 241 242 244 244 245 246 246 247
242 243 244 245 247 248 250 252 254 256 258 261 263 265 266 268 269 270 271 271 271 271 270 268 265 261 257 253 249 246 243 241 238 236 233 230 227 226 225 224 224 224 222 221 219 218 217 217 217 217 219 220 222 223 225 227 229 231 232 233 234 234 233 233 233 232 232 232 232 233 233 233 234 235 236 238 239 241 242 244 245 246 247 248 249 249
242 243 244 245 247 248 250 252 254 256 258 260 262 264 266 267 268 269 270 271 271 271 270 269 267 263 260 256 252 248 245 243 241 239 237 234 231 229 227 226 226 226 225 224 223 222 221 220 220 220 220 221 223 224 226 227 228 230 232 234 235 236 236 236 236 236 236 236 235 235 235 236 236 237 238 239 240 242 243 245 246 247 248 249 250 251
242 243 244 245 247 249 250 252 254 256 258 260 262 264 265 267 268 269 270 270 271 271 270 270 268 265 262 259 255 252 249 245 243 241 239 237 235 233 231 229 228 227 227 227 226 225 224 223 223 222 222 222 224 225 227 228 229 230 232 233 235 236 238 238 239 239 239 239 238 238 238 238 238 239 239 240 241 243 244 245 247 248 249 250 251 251
242 243 244 246 247 249 251 252 254 256 258 260 262 264 265 266 268 269 269 270 271 271 271 270 269 267 265 262 259 255 252 249 246 243 241 240 238 236 234 232 230 229 229 228 228 228 227 226 225 225 224 225 225 226 228 229 230 231 233 234 235 236 238 239 240 240 241 241 241 241 241 241 241 241 242 242 243 244 245 246 247 248 249 250 251 252
241 243 244 246 247 249 251 253 255 256 259 260 262 263 265 266 267 268 269 270 271 271 271 271 270 269 267 265 262 259 256 253 250 247 244 242 241 239 238 236 234 232 231 230 230 230 229 228 228 227 227 227 227 228 229 230 231 232 233 234 235 236 238 239 240 241 242 242 243 243 244 244 244 244 244 245 245 246 247 248 249 249 250 251 251 252
241 243 244 246 248 249 251 253 255 257 259 260 262 263 265 266 267 268 269 270 271 271 271 271 271 270 269 267 265 262 260 257 254 251 248 245 243 241 240 239 237 235 234 232 232 231 231 230 230 230 229 229 229 229 230 230 231 232 233 234 236 237 238 239 240 241 242 243 243 244 245 245 245 246 246 246 247 247 248 249 249 250 251 251 252 253
242 243 244 246 248 250 251 253 255 257 259 260 262 263 264 266 267 268 269 270 270 271 272 272 271 271 270 269 267 266 263 261 258 255 252 249 246 244 242 241 240 238 237 235 234 233 233 232 232 232 232 232 231 231 231 232 232 233 234 235 236 237 238 239 240 241 242 243 244 245 245 246 246 247 247 248 248 248 249 249 250 250 251 252 252 253
242 243 244 246 248 250 252 254 256 257 259 260 262 263 264 265 267 268 269 270 270 271 272 272 272 272 271 270 269 268 267 265 263 260 257 254 250 247 245 243 242 240 239 238 237 236 235 234 234 234 233 233 233 233 233 234 234 235 235 235 236 237 238 239 240 241 242 243 244 245 246 247 247 248 248 249 249 249 250 250 250 251 251 252 252 253
242 243 245 246 248 250 252 254 255 257 259 260 261 263 264 265 266 267 269 270 270 271 272 272 272 272 272 272 271 270 269 268 267 265 262 259 256 252 249 246 244 242 241 240 239 238 237 237 236 235 235 235 235 235 235 235 236 236 237 237 238 238 239 239 240 241 242 243 244 245 246 247 248 249 250 250 251 251 251 252 252 252 253 253 253 254
242 244 245 247 248 250 252 254 255 257 259 260 261 263 264 265 266 267 268 269 270 271 272 272 272 273 273 273 272 272 271 270 270 268 267 264 261 257 253 250 247 244 243 242 241 240 240 239 238 238 237 237 237 237 237 237 237 238 238 239 239 240 240 241 241 242 242 243 244 245 246 247 248 249 250 251 251 252 253 253 253 254 254 254 255 255
243 244 245 247 248 250 252 254 255 257 258 260 261 262 264 265 266 267 268 269 270 271 271 272 273 273 273 273 273 273 273 272 272 271 270 268 266 262 258 254 250 247 245 244 243 242 241 241 240 240 239 239 238 238 238 238 239 239 240 240 241 241 242 242 243 244 244 245 245 246 247 247 248 249 250 251 252 253 253 254 254 255 255 256 256 256
243 244 246 247 249 250 252 254 255 257 258 260 261 262 263 265 266 267 268 269 270 271 271 272 273 273 273 274 274 274 274 273 273 273 272 271 269 266 263 259 254 251 248 246 244 243 243 242 242 241 241 241 240 240 240 240 240 240 241 241 242 242 243 244 244 245 246 246 247 248 248 249 250 251 251 252 253 254 255 255 256 257 257 258 258 259
243 244 246 247 249 251 252 254 255 257 258 259 261 262 263 264 265 266 267 268 269 270 271 272 273 273 274 274 274 274 275 274 274 274 273 272 271 269 266 262 258 254 251 248 246 245 244 244 243 243 243 242 242 242 242 241 241 241 242 242 243 243 244 244 245 246 246 247 248 249 250 251 251 252 253 254 255 256 257 257 258 259 259 260 261 262
244 245 246 248 249 251 252 254 255 256 258 259 260 261 263 264 265 266 267 268 269 270 271 272 273 274 274 274 275 275 275 275 275 275 275 274 273 271 269 265 262 258 254 251 249 247 246 245 244 244 244 244 244 243 243 243 243 243 243 243 244 244 244 245 245 246 247 247 248 249 250 251 252 253 254 255 256 257 258 259 259 260 261 262 262 263
244 245 247 248 249 251 252 254 255 256 257 259 260 261 262 264 265 266 267 268 269 270 271 272 273 274 274 275 275 275 276 276 276 276 276 276 275 273 271 268 264 261 257 254 251 249 247 246 245 245 245 245 245 245 245 245 245 245 245 245 245 245 246 246 246 247 247 248 249 249 250 251 252 253 254 255 256 257 258 259 260 260 261 262 262 263
244 246 247 248 250 251 252 254 255 256 257 259 260 261 262 263 264 266 267 268 269 270 271 272 273 274 275 275 275 276 276 276 277 277 277 277 276 275 273 270 267 263 260 257 254 252 250 248 247 246 246 246 246 246 246 246 246 246 246 246 246 247 247 247 248 248 248 249 249 250 250 251 252 253 253 254 256 257 257 258 259 260 261 261 262 263
245 246 247 248 250 251 253 254 255 256 257 259 260 261 262 263 264 266 267 268 269 270 271 272 273 274 275 275 276 276 277 277 278 278 278 278 278 277 275 272 269 266 263 260 257 254 252 251 249 248 247 247 247 247 247 247 247 247 248 248 248 248 248 249 249 249 250 250 250 251 251 252 252 253 254 255 255 256 257 258 259 260 260 261 262 263
Height
10567 10567 10568 10568 10568 10568 10567 10567 10567 10567 10566 10566 10565 10565 10564 10563 10562 10561 10559 10557 10554 10551 10547 10544 10540 10536 10532 10529 10525 10520 10517 10512 10507 10502 10498 10493 10488 10483 10479 10474 10469 10464 10460 10455 10452 10448 10445 10442 10440 10439 10438 10438 10438 10439 10440 10442 10445 10448 10452 10457 10461 10465 10471 10476 10482 10487 10492 10498 10505 10512 10517 10522 10527 10532 10536 10541 10547 10553 10555 10557 10558 10560 10564 10565 10567 10569
10564 10565 10565 10565 10565 10565 10565 10565 10565 10565 10564 10564 10563 10562 10562 10561 10560 10559 10557 10555 10552 10549 10545 10542 10539 10535 10532 10529 10525 10522 10517 10513 10509 10504 10499 10495 10490 10485 10480 10475 10471 10467 10463 10459 10455 10452 10449 10447 10444 10443 10442 10442 10442 10442 10444 10446 10449 10452 10456 10460 10465 10469 10474 10479 10484 10489 10494 10500 10508 10514 10518 10524 10529 10533 10537 10542 10547 10550 10553 10556 10559 10561 10564 10565 10567 10569
10562 10562 10562 10563 10563 10562 10562 10562 10562 10562 10562 10562 10561 10560 10560 10559 10558 10557 10555 10553 10550 10547 10544 10540 10538 10535 10532 10529 10526 10522 10519 10514 10510 10505 10502 10497 10492 10487 10483 10479 10475 10470 10467 10464 10460 10457 10454 10451 10449 10448 10447 10447 10447 10448 10449 10451 10454 10457 10460 10465 10469 10474 10477 10482 10487 10492 10497 10505 10513 10518 10520 10525 10529 10534 10539 10543 10547 10552 10555 10559 10561 10563 10565 10568 10569 10570
10559 10559 10559 10560 10560 10560 10560 10560 10560 10560 10560 10560 10559 10559 10558 10557 10556 10555 10554 10552 10549 10545 10542 10540 10537 10535 10532 10530 10526 10522 10519 10515 10511 10507 10504 10500 10496 10492 10487 10483 10479 10475 10472 10469 10465 10462 10459 10457 10455 10454 10453 10453 10454 10455 10456 10458 10460 10463 10467 10470 10474 10479 10482 10487 10492 10497 10503 10510 10517 10520 10522 10526 10531 10536 10542 10547 10551 10555 10558 10560 10562 10564 10567 10569 10570 10570
10556 10557 10557 10557 10557 10557 10557 10558 10558 10558 10557 10557 10557 10557 10556 10555 10554 10553 10552 10550 10547 10544 10541 10539 10537 10534 10532 10529 10526 10523 10519 10515 10512 10509 10506 10503 10500 10496 10492 10488 10484 10481 10477 10475 10472 10469 10466 10464 10462 10461 10460 10461 10462 10462 10464 10465 10467 10470 10474 10477 10481 10485 10490 10495 10500 10505 10510 10515 10518 10521 10525 10530 10535 10540 10545 10549 10552 10555 10558 10560 10562 10564 10567 10567 10568 10569
10554 10554 10554 10554 10555 10555 10555 10555 10555 10555 10555 10555 10555 10555 10554 10553 10552 10551 10549 10547 10545 10542 10540 10537 10535 10534 10532 10529 10526 10523 10519 10516 10513 10510 10507 10505 10503 10500 10497 10494 10490 10487 10484 10482 10479 10476 10474 10472 10470 10469 10469 10469 10470 10471 10472 10474 10475 10478 10481 10484 10488 10492 10497 10501 10505 10510 10515 10518 10521 10525 10529 10534 10539 10543 10546 10549 10551 10554 10557 10559 10560 10562 10564 10565 10565 10567
10550 10551 10552 10552 10552 10552 10552 10553 10553 10553 10553 10553 10553 10552 10552 10551 10550 10549 10547 10545 10544 10541 10538 10536 10535 10534 10531 10529 10526 10523 10520 10517 10514 10511 10509 10507 10504 10502 10500 10497 10495 10492 10490 10488 10485 10483 10481 10479 10478 10477 10477 10477 10478 10479 10480 10481 10483 10485 10488 10490 10494 10497 10500 10504 10509 10514 10517 10520 10525 10529 10533 10537 10540 10542 10545 10547 10550 10552 10554 10556 10558 10560 10562 10563 10564 10565
10547 10548 10549 10549 10549 10550 10550 10550 10550 10550 10550 10550 10550 10550 10550 10549 10548 10547 10545 10544 10542 10539 10537 10535 10534 10532 10530 10529 10526 10524 10520 10517 10515 10512 10510 10508 10505 10504 10502 10500 10497 10495 10494 10492 10490 10489 10487 10485 10484 10484 10484 10483 10484 10484 10485 10487 10489 10490 10492 10494 10496 10499 10503 10509 10514 10515 10518 10522 10527 10530 10534 10537 10539 10542 10544 10546 10549 10550 10553 10555 10557 10559 10560 10561 10562 10563
10545 10545 10546 10547 10547 10547 10547 10547 10548 10549 10549 10549 10549 10549 10548 10547 10546 10545 10544 10542 10540 10538 10535 10534 10532 10531 10530 10529 10526 10524 10521 10519 10516 10514 10512 10510 10507 10505 10503 10501 10499 10498 10496 10494 10493 10492 10491 10490 10490 10489 10489 10488 10488 10489 10489 10490 10491 10492 10494 10496 10498 10502 10508 10514 10517 10520 10522 10524 10527 10531 10534 10537 10539 10542 10544 10546 10548 10550 10552 10554 10555 10556 10557 10558 10559 10560
10542 10542 10543 10544 10544 10545 10545 10545 10545 10546 10547 10547 10547 10547 10547 10545 10545 10544 10542 10540 10539 10537 10534 10533 10532 10530 10529 10528 10526 10524 10522 10520 10518 10516 10514 10512 10510 10508 10505 10504 10502 10500 10498 10496 10495 10494 10494 10494 10494 10494 10493 10493 10492 10492 10493 10493 10494 10495 10496 10498 10502 10507 10514 10517 10520 10524 10526 10527 10528 10530 10534 10537 10539 10542 10544 10546 10548 10550 10551 10552 10553 10554 10554 10555 10556 10558
10539 10540 10540 10541 10542 10542 10543 10543 10544 10544 10544 10545 10545 10545 10545 10544 10543 10542 10540 10539 10537 10535 10533 10532 10530 10530 10529 10528 10526 10524 10523 10521 10519 10518 10516 10514 10512 10510 10509 10507 10505 10504 10501 10499 10497 10497 10497 10497 10497 10497 10497 10497 10497 10497 10497 10497 10498 10499 10500 10502 10508 10515 10519 10520 10523 10525 10527 10529 10530 10532 10535 10538 10541 10544 10545 10547 10547 10548 10549 10549 10550 10551 10552 10553 10555 10557
10536 10537 10538 10539 10539 10540 10540 10541 10541 10542 10542 10542 10542 10542 10542 10542 10542 10540 10539 10538 10536 10534 10532 10530 10530 10529 10529 10527 10526 10525 10523 10522 10520 10519 10517 10515 10514 10512 10511 10509 10508 10507 10505 10503 10501 10500 10500 10500 10500 10500 10501 10501 10501 10501 10501 10502 10502 10504 10505 10508 10514 10519 10522 10522 10524 10525 10528 10530 10534 10537 10539 10540 10542 10544 10545 10545 10545 10545 10546 10547 10549 10550 10551 10553 10555 10557
10534 10534 10535 10536 10537 10537 10538 10539 10539 10539 10540 10540 10540 10540 10540 10540 10540 10539 10538 10537 10535 10533 10531 10530 10529 10529 10528 10527 10527 10525 10524 10522 10521 10520 10518 10517 10515 10514 10512 10512 10510 10509 10507 10505 10504 10504 10504 10504 10505 10506 10506 10505 10505 10505 10505 10506 10507 10508 10509 10512 10515 10519 10522 10524 10525 10528 10532 10534 10535 10537 10538 10539 10540 10541 10542 10542 10542 10544 10545 10546 10548 10549 10550 10552 10554 10555
10530 10532 10532 10534 10534 10535 10535 10536 10537 10537 10538 10538 10539 10539 10539 10539 10538 10537 10536 10535 10534 10532 10530 10529 10528 10528 10527 10527 10527 10525 10524 10523 10522 10520 10519 10517 10516 10515 10514 10513 10512 10510 10509 10508 10507 10506 10506 10506 10507 10507 10509 10508 10507 10507 10507 10509 10510 10512 10513 10514 10517 10519 10522 10524 10526 10529 10530 10531 10532 10534 10535 10535 10537 10537 10539 10539 10540 10542 10544 10545 10547 10549 10549 10550 10552 10553
10528 10529 10530 10530 10532 10532 10534 10534 10535 10535 10535 10536 10537 10537 10537 10536 10536 10535 10535 10534 10533 10531 10530 10529 10527 10527 10527 10527 10527 10526 10525 10524 10522 10520 10519 10518 10517 10516 10515 10514 10514 10512 10511 10510 10509 10509 10509 10508 10507 10509 10510 10510 10510 10510 10510 10512 10514 10515 10517 10519 10520 10522 10524 10525 10527 10528 10529 10530 10531 10532 10533 10534 10534 10535 10536 10537 10539 10541 10543 10544 10545 10547 10548 10549 10550 10552
10525 10526 10527 10528 10529 10530 10531 10532 10532 10533 10534 10534 10535 10535 10534 10534 10534 10534 10533 10532 10531 10530 10529 10527 10527 10526 10526 10527 10527 10526 10525 10524 10522 10521 10519 10519 10517 10517 10517 10515 10515 10514 10513 10512 10512 10511 10511 10510 10510 10510 10512 10512 10512 10513 10513 10515 10516 10517 10519 10520 10522 10522 10524 10525 10525 10527 10528 10529 10530 10532 10532 10534 10534 10535 10536 10537 10539 10540 10542 10544 10545 10546 10548 10549 10550 10551
10522 10523 10524 10525 10526 10527 10529 10529 10530 10531 10532 10532 10532 10533 10532 10532 10532 10532 10531 10530 10530 10529 10528 10527 10526 10525 10525 10525 10526 10525 10525 10524 10522 10521 10520 10519 10518 10518 10517 10517 10516 10515 10515 10514 10514 10513 10513 10512 10512 10512 10512 10513 10514 10514 10515 10516 10517 10519 10520 10521 10522 10523 10524 10524 10525 10526 10527 10528 10529 10530 10532 10533 10534 10535 10536 10537 10539 10540 10541 10542 10544 10546 10547 10549 10550 10550
10519 10520 10521 10522 10524 10525 10525 10527 10528 10529 10529 10530 10530 10530 10530 10530 10530 10530 10530 10529 10529 10528 10527 10526 10525 10525 10525 10525 10525 10525 10525 10524 10522 10521 10520 10519 10519 10518 10518 10518 10517 10517 10516 10515 10515 10515 10514 10514 10514 10514 10515 10515 10515 10515 10517 10517 10519 10520 10520 10521 10522 10522 10523 10524 10524 10525 10526 10527 10529 10530 10531 10532 10534 10534 10535 10537 10538 10539 10540 10541 10542 10544 10545 10547 10548 10549
10516 10517 10519 10520 10521 10522 10523 10524 10525 10526 10527 10528 10528 10529 10529 10529 10529 10528 10528 10527 10527 10526 10526 10525 10524 10524 10524 10524 10525 10525 10525 10524 10522 10521 10520 10519 10519 10518 10518 10518 10518 10517 10517 10517 10517 10516 10516 10516 10516 10516 10516 10517 10517 10518 10518 10519 10519 10520 10520 10521 10522 10522 10522 10524 10524 10525 10525 10526 10527 10529 10530 10531 10532 10533 10534 10535 10536 10537 10539 10539 10540 10542 10544 10545 10546 10547
10514 10515 10516 10517 10518 10519 10520 10522 10523 10524 10525 10525 10526 10527 10527 10527 10527 10526 10526 10525 10525 10525 10524 10524 10524 10523 10523 10524 10524 10524 10524 10524 10522 10521 10520 10519 10519 10518 10518 10518 10518 10518 10518 10518 10518 10518 10518 10517 10517 10517 10517 10518 10519 10519 10519 10519 10519 10520 10520 10520 10521 10522 10522 10523 10524 10524 10525 10525 10527 10527 10529 10530 10530 10532 10532 10534 10535 10536 10537 10538 10539 10540 10541 10542 10544 10545
10510 10512 10513 10514 10515 10517 10517 10519 10520 10521 10522 10523 10524 10524 10525 10525 10525 10525 10524 10524 10524 10523 10523 10522 10522 10522 10522 10522 10523 10524 10524 10523 10522 10521 10520 10519 10519 10518 10518 10518 10518 10518 10518 10519 10519 10519 10519 10519 10519 10519 10519 10519 10519 10519 10519 10519 10519 10519 10520 10520 10520 10521 10522 10522 10523 10524 10524 10525 10525 10527 10528 10529 10530 10530 10532 10532 10534 10534 10535 10536 10537 10538 10539 10540 10541 10542
10508 10509 10510 10512 10513 10514 10515 10516 10517 10519 10520 10520 10521 10522 10522 10523 10523 10523 10523 10522 10522 10522 10521 10521 10521 10521 10521 10521 10522 10522 10523 10522 10521 10520 10520 10519 10519 10518 10518 10517 10517 10517 10518 10519 10519 10519 10519 10519 10519 10519 10519 10519 10519 10519 10519 10519 10519 10519 10520 10520 10520 10521 10522 10522 10522 10523 10524 10524 10525 10526 10527 10528 10529 10530 10531 10532 10532 10534 10534 10535 10535 10536 10537 10538 10539 10540
10505 10506 10508 10509 10510 10511 10512 10514 10515 10516 10517 10518 10519 10519 10520 10520 10521 10521 10521 10521 10520 10520 10520 10520 10520 10520 10520 10520 10520 10521 10522 10522 10521 10520 10519 10519 10518 10518 10518 10517 10517 10517 10517 10518 10519 10519 10519 10519 10519 10519 10519 10519 10519 10519 10519 10520 10520 10520 10520 10521 10521 10522 10522 10522 10523 10523 10524 10524 10525 10525 10527 10527 10529 10529 10530 10530 10531 10532 10533 10534 10534 10534 10535 10535 10537 10537
10502 10504 10505 10506 10507 10509 10510 10511 10512 10513 10514 10515 10516 10517 10518 10519 10519 10519 10519 10519 10519 10519 10519 10518 10518 10518 10519 10519 10519 10519 10520 10520 10520 10519 10519 10518 10517 10517 10517 10517 10517 10516 10516 10517 10517 10518 10519 10519 10519 10519 10519 10518 10518 10518 10519 10519 10520 10520 10521 10521 10522 10522 10522 10523 10523 10524 10524 10524 10525 10525 10526 10527 10528 10529 10529 10530 10530 10531 10531 10532 10532 10532 10533 10534 10534 10535
10500 10501 10502 10504 10505 10506 10507 10509 10509 10510 10511 10512 10514 10514 10515 10516 10517 10517 10517 10518 10517 10517 10517 10516 10516 10516 10517 10517 10517 10517 10518 10519 10519 10519 10517 10517 10517 10516 10516 10516 10516 10516 10515 10516 10517 10517 10517 10518 10518 10519 10518 10518 10517 10517 10517 10518 10519 10519 10520 10520 10521 10522 10522 10522 10523 10523 10524 10524 10524 10525 10525 10526 10527 10527 10528 10529 10529 10530 10530 10530 10530 10530 10530 10531 10532 10534
10497 10499 10500 10501 10502 10504 10505 10505 10507 10508 10509 10510 10510 10512 10512 10514 10514 10515 10515 10515 10515 10515 10515 10514 10514 10514 10515 10515 10515 10515 10516 10517 10518 10517 10517 10516 10515 10515 10515 10515 10515 10515 10515 10515 10515 10516 10516 10517 10517 10517 10517 10517 10517 10517 10517 10517 10517 10517 10519 10519 10520 10520 10521 10522 10522 10522 10523 10524 10524 10524 10525 10525 10526 10527 10527 10527 10528 10529 10529 10529 10529 10529 10529 10529 10530 10532
10494 10495 10497 10498 10499 10500 10502 10503 10504 10505 10506 10507 10508 10509 10510 10510 10511 10512 10512 10513 10514 10514 10513 10513 10512 10512 10512 10513 10513 10514 10514 10515 10515 10516 10516 10515 10515 10514 10514 10514 10514 10514 10514 10514 10514 10515 10515 10515 10515 10516 10516 10517 10517 10516 10516 10515 10515 10516 10517 10517 10518 10519 10520 10520 10520 10521 10522 10522 10523 10523 10524 10524 10525 10525 10525 10526 10526 10526 10526 10526 10526 10526 10527 10527 10529 10529
10491 10492 10494 10495 10497 10498 10499 10500 10501 10502 10503 10504 10505 10506 10507 10508 10508 10509 10510 10510 10511 10511 10511 10511 10511 10510 10510 10510 10511 10512 10512 10513 10514 10514 10515 10514 10514 10513 10512 10512 10512 10512 10512 10512 10513 10513 10514 10514 10514 10514 10514 10515 10515 10515 10515 10515 10514 10514 10515 10515 10516 10517 10517 10518 10519 10519 10520 10520 10521 10521 10522 10522 10523 10523 10523 10524 10524 10524 10524 10524 10524 10524 10525 10525 10527 10527
10489 10490 10491 10492 10494 10495 10496 10497 10499 10499 10500 10501 10502 10504 10504 10505 10505 10506 10507 10508 10509 10509 10509 10509 10509 10509 10509 10509 10509 10510 10510 10510 10511 10512 10513 10513 10512 10512 10511 10511 10510 10510 10510 10511 10511 10512 10512 10512 10512 10512 10513 10513 10514 10514 10514 10514 10514 10514 10514 10514 10514 10515 10515 10516 10517 10517 10518 10518 10519 10519 10519 10520 10520 10520 10520 10520 10521 10521 10521 10521 10522 10522 10523 10524 10524 10525
10485 10487 10488 10489 10490 10492 10494 10494 10495 10497 10497 10499 10499 10500 10501 10502 10503 10504 10504 10505 10505 10506 10507 10507 10507 10507 10507 10507 10507 10507 10508 10508 10509 10510 10510 10510 10510 10510 10510 10509 10509 10509 10509 10509 10510 10510 10510 10510 10510 10511 10511 10512 10512 10512 10512 10513 10513 10513 10512 10512 10512 10512 10513 10514 10514 10515 10515 10516 10516 10517 10517 10517 10517 10517 10518 10518 10518 10519 10519 10519 10519 10520 10521 10522 10522 10522
10482 10483 10485 10486 10487 10489 10490 10492 10492 10494 10495 10495 10497 10497 10499 10499 10500 10500 10502 10502 10503 10504 10504 10504 10505 10505 10505 10504 10504 10505 10505 10505 10507 10508 10508 10508 10508 10508 10509 10508 10507 10507 10507 10507 10507 10508 10508 10509 10509 10509 10510 10510 10510 10510 10510 10511 10512 10512 10512 10512 10511 10511 10511 10511 10512 10512 10513 10513 10514 10514 10514 10514 10515 10515 10515 10515 10515 10516 10517 10517 10517 10518 10519 10519 10520 10520
10479 10480 10482 10483 10484 10486 10487 10489 10490 10490 10492 10492 10494 10495 10495 10496 10497 10498 10499 10499 10500 10500 10501 10502 10502 10502 10502 10502 10502 10502 10502 10503 10504 10505 10505 10505 10505 10505 10506 10506 10505 10505 10505 10505 10505 10505 10505 10506 10507 10507 10507 10508 10508 10508 10509 10509 10509 10509 10510 10510 10510 10510 10510 10510 10510 10510 10510 10510 10511 10511 10512 10512 10512 10512 10513 10514 10514 10514 10514 10515 10515 10516 10516 10517 10517 10517
10475 10477 10479 10480 10481 10483 10484 10485 10487 10487 10489 10489 10490 10492 10492 10494 10494 10495 10495 10497 10497 10497 10498 10499 10499 10499 10500 10500 10500 10500 10500 10500 10502 10502 10503 10503 10503 10503 10504 10504 10504 10503 10503 10503 10503 10503 10503 10504 10504 10504 10505 10505 10505 10506 10506 10506 10507 10507 10507 10507 10507 10508 10508 10508 10508 10508 10509 10509 10509 10509 10509 10510 10510 10510 10511 10512 10512 10512 10512 10513 10513 10514 10514 10514 10514 10514
10472 10474 10475 10477 10478 10479 10481 10482 10484 10484 10485 10486 10487 10489 10489 10490 10491 10492 10493 10494 10494 10495 10495 10495 10496 10497 10497 10497 10497 10497 10497 10498 10499 10499 10500 10500 10500 10500 10500 10500 10500 10500 10501 10500 10500 10500 10500 10500 10501 10502 10502 10502 10502 10503 10504 10504 10504 10504 10504 10504 10505 10505 10505 10506 10506 10507 10507 10507 10507 10507 10507 10508 10509 10509 10509 10509 10510 10510 10510 10510 10511 10511 10512 10512 10512 10512
10469 10470 10472 10474 10475 10476 10477 10479 10480 10481 10482 10483 10484 10485 10486 10487 10488 10489 10489 10490 10491 10492 10492 10493 10494 10494 10494 10494 10494 10494 10495 10495 10495 10496 10497 10497 10497 10497 10497 10497 10498 10498 10498 10498 10498 10498 10498 10498 10499 10499 10499 10499 10499 10500 10500 10500 10501 10502 10502 10502 10502 10502 10502 10503 10504 10504 10504 10504 10505 10505 10505 10506 10506 10507 10507 10507 10507 10508 10508 10509 10509 10509 10509 10510 10510 10510
10466 10467 10469 10470 10472 10473 10474 10475 10477 10478 10479 10480 10481 10482 10483 10484 10485 10485 10486 10487 10487 10489 10489 10490 10490 10491 10491 10492 10492 10492 10492 10492 10493 10493 10493 10494 10494 10494 10494 10494 10495 10495 10495 10495 10495 10495 10495 10495 10495 10495 10496 10496 10497 10497 10497 10497 10498 10499 10499 10499 10499 10499 10500 10500 10500 10500 10501 10501 10502 10502 10502 10503 10504 10504 10504 10505 10505 10505 10505 10506 10507 10507 10507 10507 10508 10508
10463 10464 10465 10467 10468 10470 10471 10472 10474 10475 10475 10477 10477 10479 10479 10480 10481 10482 10483 10484 10484 10485 10485 10486 10487 10487 10488 10489 10489 10489 10489 10490 10490 10490 10490 10490 10490 10490 10490 10491 10492 10492 10492 10492 10492 10492 10492 10492 10492 10493 10493 10493 10493 10494 10494 10494 10495 10495 10495 10495 10496 10497 10497 10497 10497 10498 10498 10498 10499 10499 10500 10500 10500 10501 10502 10502 10502 10502 10503 10504 10504 10504 10504 10505 10505 10505
10460 10461 10462 10464 10465 10466 10467 10469 10470 10471 10472 10474 10474 10475 10476 10477 10478 10479 10479 10480 10480 10481 10482 10482 10483 10484 10485 10485 10485 10486 10486 10487 10487 10487 10487 10487 10487 10487 10487 10487 10488 10489 10489 10489 10489 10489 10489 10489 10489 10489 10489 10489 10490 10490 10490 10491 10492 10492 10492 10492 10493 10493 10494 10494 10494 10495 10495 10495 10495 10496 10497 10497 10498 10498 10499 10499 10499 10500 10500 10500 10501 10501 10502 10502 10502 10503
10457 10458 10459 10460 10462 10463 10464 10465 10467 10468 10469 10470 10471 10472 10473 10474 10474 10475 10476 10477 10477 10477 10478 10479 10479 10480 10480 10481 10482 10482 10483 10483 10484 10484 10484 10484 10484 10484 10484 10484 10484 10484 10485 10485 10485 10485 10486 10486 10485 10485 10485 10486 10486 10487 10487 10487 10488 10488 10489 10489 10490 10490 10490 10490 10491 10491 10492 10492 10492 10493 10493 10494 10495 10495 10495 10496 10497 10497 10497 10497 10498 10499 10499 10499 10500 10500
10454 10455 10456 10457 10459 10460 10461 10462 10464 10465 10465 10467 10467 10469 10469 10470 10470 10472 10472 10473 10474 10474 10474 10475 10476 10476 10477 10477 10478 10479 10479 10479 10480 10480 10480 10480 10480 10480 10480 10480 10480 10480 10481 10482 10482 10482 10482 10482 10482 10482 10482 10482 10483 10483 10484 10484 10484 10484 10485 10485 10486 10486 10487 10487 10487 10488 10488 10489 10489 10489 10490 10490 10491 10492 10492 10492 10493 10494 10494 10494 10495 10495 10496 10496 10497 10497
10451 10452 10453 10454 10455 10457 10458 10459 10460 10461 10462 10463 10464 10465 10465 10466 10467 10467 10468 10469 10469 10470 10470 10471 10472 10472 10473 10474 10474 10475 10475 10475 10476 10476 10477 10477 10477 10477 10477 10476 10476 10477 10477 10477 10477 10478 10478 10478 10479 10479 10479 10479 10479 10479 10480 10480 10480 10481 10482 10482 10482 10482 10483 10484 10484 10484 10485 10485 10485 10485 10486 10487 10487 10488 10489 10489 10489 10490 10490 10491 10492 10492 10492 10493 10494 10494
10448 10449 10450 10451 10452 10454 10455 10455 10457 10458 10459 10460 10460 10461 10462 10462 10463 10464 10464 10465 10465 10466 10467 10467 10468 10468 10469 10469 10470 10470 10471 10472 10472 10472 10473 10473 10473 10473 10473 10472 10472 10473 10473 10473 10473 10474 10474 10474 10474 10475 10475 10475 10475 10476 10476 10477 10477 10477 10478 10478 10478 10479 10479 10480 10480 10481 10481 10482 10482 10482 10483 10483 10484 10484 10485 10485 10486 10486 10487 10488 10488 10489 10489 10489 10490 10490
10445 10446 10447 10449 10449 10450 10452 10452 10454 10454 10455 10456 10457 10457 10458 10459 10460 10460 10460 10461 10461 10462 10463 10464 10464 10464 10465 10465 10466 10467 10467 10467 10468 10469 10469 10469 10469 10469 10469 10469 10469 10469 10469 10469 10469 10469 10469 10470 10470 10470 10470 10471 10472 10472 10472 10473 10474 10474 10474 10474 10475 10475 10476 10476 10476 10477 10478 10478 10479 10479 10479 10480 10480 10480 10481 10482 10482 10483 10483 10484 10484 10485 10485 10485 10486 10486
10442 10443 10444 10445 10446 10447 10449 10449 10450 10450 10452 10452 10453 10454 10454 10455 10456 10456 10457 10457 10457 10458 10459 10459 10460 10460 10460 10461 10462 10462 10463 10464 10464 10464 10464 10465 10465 10465 10465 10465 10465 10465 10465 10465 10464 10464 10465 10465 10466 10466 10467 10467 10468 10468 10469 10469 10469 10470 10470 10471 10472 10472 10472 10472 10472 10474 10474 10474 10475 10475 10475 10476 10477 10477 10477 10478 10479 10479 10479 10480 10480 10480 10481 10482 10482 10482
10439 10440 10441 10442 10443 10444 10445 10445 10447 10447 10448 10449 10449 10450 10450 10451 10452 10452 10452 10453 10454 10454 10455 10455 10456 10457 10457 10457 10458 10459 10459 10459 10460 10460 10460 10460 10460 10460 10460 10460 10460 10460 10460 10460 10460 10460 10460 10460 10461 10462 10462 10463 10464 10464 10464 10465 10465 10466 10467 10467 10468 10468 10469 10469 10469 10470 10470 10470 10471 10472 10472 10472 10473 10474 10474 10474 10474 10475 10475 10475 10476 10477 10477 10477 10478 10478
10435 10436 10437 10439 10440 10440 10441 10442 10443 10444 10445 10445 10445 10446 10447 10447 10448 10449 10449 10449 10449 10450 10450 10452 10452 10452 10453 10454 10454 10454 10455 10455 10455 10456 10456 10456 10456 10456 10456 10456 10456 10456 10456 10456 10456 10456 10456 10457 10457 10457 10458 10459 10459 10459 10460 10460 10461 10462 10462 10463 10464 10464 10465 10465 10466 10467 10467 10467 10468 10468 10469 10469 10470 10470 10470 10470 10470 10471 10471 10472 10472 10472 10473 10474 10474 10474
10432 10433 10434 10435 10436 10437 10438 10439 10440 10440 10441 10441 10442 10442 10443 10444 10444 10444 10445 10445 10445 10446 10447 10447 10449 10449 10449 10450 10450 10450 10450 10451 10451 10452 10452 10452 10452 10452 10452 10452 10452 10452 10452 10452 10452 10452 10452 10452 10452 10453 10454 10454 10454 10454 10455 10456 10457 10457 10458 10459 10460 10460 10460 10461 10462 10462 10464 10464 10464 10465 10465 10466 10466 10467 10466 10467 10467 10467 10468 10468 10469 10469 10469 10470 10470 10470
10428 10429 10430 10432 10433 10434 10435 10435 10436 10437 10437 10437 10438 10439 10439 10440 10440 10440 10440 10441 10442 10442 10443 10444 10444 10445 10445 10446 10446 10447 10447 10447 10447 10447 10447 10448 10448 10448 10448 10447 10447 10447 10447 10447 10447 10447 10448 10448 10449 10449 10449 10449 10449 10450 10450 10451 10452 10453 10454 10454 10455 10456 10456 10457 10457 10459 10459 10460 10460 10461 10462 10462 10462 10462 10462 10463 10464 10464 10464 10464 10465 10465 10465 10466 10466 10466
10425 10426 10427 10429 10429 10430 10431 10432 10432 10433 10434 10434 10434 10435 10435 10436 10436 10437 10437 10437 10438 10439 10439 10440 10440 10441 10442 10442 10442 10442 10443 10443 10443 10443 10444 10444 10444 10444 10443 10443 10443 10443 10443 10443 10443 10443 10444 10444 10444 10444 10444 10445 10445 10445 10446 10447 10447 10449 10449 10450 10451 10452 10452 10452 10454 10454 10455 10456 10456 10457 10457 10458 10458 10459 10459 10459 10459 10459 10460 10460 10460 10460 10461 10461 10462 10462
10422 10423 10424 10425 10426 10427 10427 10428 10429 10429 10430 10430 10430 10431 10431 10432 10432 10433 10434 10434 10435 10435 10436 10437 10437 10437 10438 10438 10438 10439 10439 10439 10439 10439 10439 10439 10439 10439 10439 10439 10439 10439 10439 10439 10439 10439 10439 10439 10439 10440 10440 10440 10441 10441 10441 10442 10443 10444 10445 10445 10446 10447 10447 10448 10449 10450 10450 10452 10452 10452 10453 10454 10454 10454 10455 10455 10455 10455 10455 10455 10455 10456 10456 10457 10457 10457
10418 10419 10420 10422 10422 10423 10424 10424 10425 10425 10425 10426 10427 10427 10427 10428 10428 10429 10430 10430 10431 10432 10432 10433 10434 10434 10434 10434 10434 10434 10434 10434 10435 10435 10435 10435 10435 10435 10434 10434 10434 10434 10434 10434 10434 10434 10434 10434 10434 10435 10435 10437 10437 10437 10437 10437 10438 10439 10440 10440 10442 10442 10443 10444 10444 10445 10446 10447 10447 10448 10449 10449 10449 10449 10450 10450 10450 10450 10450 10450 10450 10451 10451 10452 10452 10452